Home   Weather   Bury   Past weeks

Flag for United Kingdom Past Weather in Bury, England, United Kingdom — Yesterday and Last 2 Weeks

Now
37 °F

Chilly.


Feels Like: 34 °F
Forecast: 33 / 42 °F
Wind: 5 mph from East

Location: Manchester Airport

Current Time: Jan 21, 2017 at 12:07:01 am

Latest Report: Jan 20, 2017 at 11:20 pm


Visibility: N/A

Pressure: 30.48 "Hg

Humidity: 75%

Dew Point: 30 °F

Location of BuryLocation

Past Weather in Bury — Graph

°F

Bury Temperature Yesterday

Maximum temperature yesterday: 46 °F (at 2:20 pm)
Minimum temperature yesterday: 36 °F (at 8:20 pm)
Average temperature yesterday: 41 °F

High & Low Weather Summary for the Past Weeks

 TemperatureHumidityPressure
High52 °F (Jan 11, 3:20 am)100% (Jan 6, 6:20 pm)30.66 "Hg (Jan 6, 6:20 pm)
Low30 °F (Jan 13, 3:50 am)53% (Jan 11, 2:20 pm)29.45 "Hg (Jan 12, 4:20 pm)
Average43 °F89%30.21 "Hg
* Reported Jan 5 10:20 pm — Jan 20 10:50 pm, Bury, Weather by CustomWeather, © 2017

Note: Actual official high and low records may vary slightly from our data, if they occured in-between our weather recording intervals... More about our weather records

Advertising

Bury Weather History for the Previous 24 Hours

Scroll right to see more
 ConditionsComfort  
Time TempWeatherWind HumidityBarometerVisibility
10:50 pm
Fri, Jan 20
37 °FChilly.7 mph81%30.48 "HgN/A
10:20 pm37 °FChilly.8 mph81%30.48 "HgN/A
9:50 pm37 °FChilly.6 mph75%30.48 "HgN/A
9:20 pm39 °FChilly.6 mph70%30.48 "HgN/A
8:50 pm39 °FChilly.6 mph75%30.48 "HgN/A
8:20 pm36 °FChilly.3 mph70%30.51 "HgN/A
7:50 pm37 °FChilly.2 mph60%30.51 "HgN/A
7:20 pm37 °FChilly.1 mph56%30.51 "HgN/A
6:50 pm37 °FChilly.1 mph60%30.51 "HgN/A
6:20 pm37 °FChilly.No wind60%30.51 "HgN/A
5:50 pm41 °FQuite cool.1 mph57%30.51 "HgN/A
5:20 pm41 °FQuite cool.3 mph57%30.51 "HgN/A
4:50 pm41 °FQuite cool.3 mph61%30.51 "HgN/A
4:20 pm43 °FQuite cool.2 mph66%30.51 "HgN/A
3:50 pm43 °FQuite cool.3 mph61%30.51 "HgN/A
3:20 pm45 °FQuite cool.5 mph61%30.51 "HgN/A
2:50 pm45 °FQuite cool.5 mph66%30.51 "HgN/A
2:20 pm46 °FCool.3 mph62%30.51 "HgN/A
1:50 pm45 °FQuite cool.2 mph66%30.51 "HgN/A
1:20 pm45 °FQuite cool.3 mph66%30.54 "HgN/A
12:50 pm45 °FQuite cool.3 mph76%30.54 "HgN/A
12:20 pm45 °FQuite cool.2 mph76%30.54 "HgN/A
11:50 am45 °FQuite cool.2 mph76%30.57 "HgN/A
11:20 am43 °FQuite cool.1 mph81%30.57 "HgN/A
10:50 am43 °FQuite cool.2 mph81%30.57 "HgN/A
10:20 am41 °FQuite cool.2 mph87%30.57 "HgN/A
9:50 am41 °FQuite cool.2 mph87%30.57 "Hg6 mi
9:20 am39 °FChilly.1 mph93%30.57 "Hg5 mi
8:50 am39 °FFog.2 mph93%30.57 "Hg2 mi
8:20 am39 °FFog.1 mph93%30.57 "Hg3 mi
7:50 am39 °FPassing clouds.2 mph93%30.57 "Hg4 mi
7:20 am41 °FOvercast.2 mph93%30.57 "Hg4 mi
6:50 am41 °FPassing clouds.2 mph93%30.54 "HgN/A
6:20 am43 °FOvercast.2 mph93%30.54 "Hg6 mi
5:50 am43 °FOvercast.2 mph93%30.54 "Hg4 mi
5:20 am43 °FFog.1 mph93%30.54 "Hg3 mi
4:50 am43 °FFog.2 mph93%30.57 "Hg2 mi
4:20 am43 °FFog.1 mph93%30.57 "Hg3 mi
3:50 am43 °FFog.1 mph93%30.57 "Hg2 mi
3:20 am43 °FFog.1 mph93%30.57 "Hg3 mi
2:50 am43 °FOvercast.1 mph93%30.57 "Hg2 mi
2:20 am43 °FOvercast.1 mph93%30.57 "Hg3 mi
1:50 am43 °FOvercast.1 mph93%30.57 "Hg4 mi
1:20 am43 °FOvercast.1 mph93%30.60 "Hg4 mi
12:50 am43 °FOvercast.1 mph93%30.60 "Hg5 mi
12:20 am43 °FOvercast.1 mph93%30.60 "Hg4 mi
Weather by CustomWeather, © 2017

See weather overviewHow to use our weather pages